Location: Forst
(46.9333°N, 15.4333°E)
Time: 14:59:34
(UTC+00:00)

Cosmos 1812 - Pass Details

Date: 01 December 2020
Orbit: 517 x 520 km, 82.5° (Epoch: 28 January)

Event Time Altitude Azimuth Distance (km) Brightness Sun altitude
Rises 17:31:34 0° 193° (SSW) 2,625 6.5 -23.2°
Reaches altitude 10° 17:33:41 10° 195° (SSW) 1,743 5.6 -23.6°
Enters shadow 17:37:04 63° 231° (SW) 581 3.0 -24.1°
